Location: Newark
(50.4348°N, 30.5552°E)
Time: 01:53:44
(UTC+00:00)

Envisat - Pass Details

Date: 11 December 2019
Orbit: 764 x 766 km, 98.1° (Epoch: 23 January)

Event Time Altitude Azimuth Distance (km) Brightness Sun altitude
Rises 04:00:36 0° 22° (NNE) 3,247 6.3 -16.0°
Reaches altitude 10° 04:03:12 10° 33° (NNE) 2,315 5.7 -15.6°
Maximum altitude 04:07:40 30° 94° (E) 1,359 5.1 -14.9°
Drops below altitude 10° 04:12:05 10° 155° (SSE) 2,298 6.1 -14.3°
Sets 04:14:38 0° 166° (SSE) 3,219 6.7 -13.9°
